Vorticity
14 31 -19 5 6 5 4 5 5 6 5 5 6 5 5 4 5 6 7 9 10 10
-7 17 34 6 2 7 6 6 8 7 6 7 6 6 6 5 6 7 8 9 10 10
19 33 23 0 10 8 7 7 9 8 6 7 6 6 4 6 6 7 7 9 10 10
39 16 5 -1 15 7 11 10 10 8 9 9 7 6 5 5 7 7 6 7 8 8
98 12 16 3 11 7 9 10 10 7 9 9 7 5 6 4 7 7 5 5 4 7
1 13 8 2 9 2 8 10 7 6 8 6 11 6 5 6 8 7 5 5 7 2
30 34 1 1 7 6 7 8 5 5 6 4 15 3 4 6 8 6 4 4 6 7
28 23 12 12 7 6 8 6 6 8 8 6 14 -1 11 5 7 6 9 6 9 7
13 19 3 -7 6 8 7 6 7 5 6 4 14 5 6 4 3 9 12 9 4 6
44 22 -12 14 16 6 7 7 5 6 6 5 12 6 3 5 10 11 10 11 7 16
53 -6 -5 25 2 6 10 6 5 6 7 7 9 6 6 6 8 8 7 4 0 6
-2 9 13 5 13 9 6 5 7 7 8 8 8 7 7 9 8 5 8 3 14 12
28 1 1 7 7 2 7 12 10 6 6 6 5 7 8 9 7 5 7 9 7 9
31 38 14 35 15 11 2 8 5 7 3 7 7 7 9 6 9 11 5 -0 10 14
Height
2957 2964 2976 2993 3012 3023 3034 3044 3055 3061 3067 3073 3078 3083 3088 3091 3095 3098 3101 3104 3106 3108
2949 2959 2964 2990 3003 3018 3028 3038 3046 3054 3059 3065 3071 3076 3081 3084 3088 3091 3095 3098 3100 3102
2940 2947 2962 2981 2994 3007 3018 3028 3038 3045 3050 3058 3064 3069 3073 3078 3082 3086 3089 3092 3094 3096
2931 2938 2954 2973 2987 2997 3010 3020 3028 3036 3044 3050 3056 3061 3065 3071 3076 3080 3084 3086 3088 3090
2916 2930 2952 2965 2979 2991 3001 3010 3020 3029 3035 3042 3048 3053 3058 3063 3069 3074 3077 3080 3082 3084
2918 2930 2941 2960 2974 2983 2994 3003 3013 3020 3026 3034 3041 3045 3051 3056 3062 3067 3070 3073 3076 3078
2914 2925 2941 2954 2965 2978 2988 2998 3004 3011 3019 3026 3033 3038 3043 3048 3055 3059 3061 3064 3069 3071
2909 2924 2928 2946 2959 2970 2978 2989 2996 3005 3012 3019 3025 3030 3035 3041 3046 3050 3053 3057 3062 3065
2913 2923 2930 2942 2953 2962 2972 2982 2989 2998 3004 3009 3017 3024 3028 3033 3037 3042 3045 3049 3054 3057
2907 2919 2926 2937 2947 2956 2965 2974 2982 2990 2996 3001 3009 3015 3021 3025 3029 3033 3037 3041 3045 3047
2898 2910 2922 2929 2938 2950 2958 2966 2974 2981 2987 2994 3001 3007 3012 3017 3021 3023 3028 3032 3034 3037
2892 2906 2909 2923 2934 2943 2951 2958 2966 2972 2979 2985 2992 2998 3003 3008 3010 3014 3018 3021 3025 3028
2888 2899 2910 2920 2928 2936 2943 2951 2958 2965 2971 2978 2984 2990 2995 2999 3001 3003 3008 3010 3015 3019
2890 2895 2905 2914 2921 2929 2935 2942 2949 2956 2962 2968 2974 2981 2986 2989 2990 2994 2999 3003 3005 3009